�������l�o���
Date,Time,MP-1(��Sv/h),MP-2(��Sv/h),MP-3(��Sv/h),MP-4(��Sv/h),MP-5(��Sv/h),MP-6(��Sv/h),MP-7(��Sv/h),MP-8(��Sv/h),����,����(m/s),���J
2020/12/14,00:00,0.667,0.958,0.612,1.203,0.847,0.382,0.673,0.634,��쐼,8.5,��
2020/12/14,00:10,0.669,0.958,0.610,1.203,0.848,0.382,0.676,0.633,��,8.7,��
2020/12/14,00:20,0.669,0.957,0.609,1.204,0.847,0.383,0.674,0.633,��,8.4,��
2020/12/14,00:30,0.670,0.959,0.611,1.205,0.848,0.382,0.675,0.633,��,9.0,��
2020/12/14,00:40,0.671,0.956,0.609,1.205,0.847,0.382,0.674,0.634,��,9.1,��
2020/12/14,00:50,0.671,0.959,0.610,1.205,0.847,0.384,0.676,0.633,��,9.2,��
2020/12/14,01:00,0.671,0.958,0.611,1.205,0.846,0.382,0.675,0.631,��,9.2,��
2020/12/14,01:10,0.670,0.959,0.611,1.204,0.849,0.382,0.676,0.633,��,9.1,��
2020/12/14,01:20,0.671,0.958,0.610,1.205,0.847,0.382,0.676,0.634,��,8.3,��
2020/12/14,01:30,0.673,0.958,0.611,1.204,0.849,0.384,0.672,0.635,��,9.0,��
2020/12/14,01:40,0.672,0.960,0.612,1.205,0.850,0.384,0.674,0.634,��쓌,8.3,��
2020/12/14,01:50,0.671,0.960,0.611,1.206,0.848,0.385,0.677,0.634,��쓌,8.5,��
2020/12/14,02:00,0.672,0.958,0.612,1.206,0.850,0.385,0.675,0.632,��쓌,7.8,��
2020/12/14,02:10,0.671,0.960,0.613,1.204,0.847,0.385,0.673,0.635,��,7.2,��
2020/12/14,02:20,0.672,0.957,0.611,1.204,0.849,0.383,0.674,0.633,��,7.1,��
2020/12/14,02:30,0.673,0.959,0.610,1.206,0.848,0.384,0.676,0.632,��쐼,6.4,��
2020/12/14,02:40,0.673,0.958,0.612,1.207,0.849,0.385,0.675,0.636,�쐼,6.8,��
2020/12/14,02:50,0.672,0.960,0.612,1.204,0.852,0.385,0.677,0.634,�쐼,9.1,��
2020/12/14,03:00,0.671,0.959,0.612,1.206,0.849,0.385,0.676,0.634,�쐼,11.3,��
2020/12/14,03:10,0.672,0.961,0.611,1.205,0.852,0.385,0.675,0.636,�쐼,12.1,��
2020/12/14,03:20,0.674,0.960,0.613,1.206,0.850,0.385,0.676,0.635,���쐼,11.7,��
2020/12/14,03:30,0.672,0.959,0.612,1.206,0.849,0.384,0.676,0.635,���쐼,12.5,��
2020/12/14,03:40,0.672,0.959,0.613,1.207,0.848,0.384,0.678,0.635,���쐼,12.4,��
2020/12/14,03:50,0.674,0.961,0.611,1.207,0.848,0.385,0.678,0.636,���쐼,11.7,��
2020/12/14,04:00,0.672,0.960,0.611,1.208,0.849,0.384,0.678,0.636,���쐼,12.2,��
2020/12/14,04:10,0.674,0.960,0.613,1.208,0.851,0.384,0.676,0.635,�쐼,11.0,��
2020/12/14,04:20,0.675,0.960,0.611,1.204,0.849,0.385,0.678,0.635,���쐼,10.9,��
2020/12/14,04:30,0.673,0.961,0.614,1.207,0.849,0.384,0.677,0.635,���쐼,9.7,��
2020/12/14,04:40,0.674,0.962,0.613,1.207,0.849,0.384,0.677,0.637,���쐼,9.4,�L
2020/12/14,04:50,0.676,0.961,0.615,1.210,0.853,0.386,0.677,0.637,��,9.0,�L
2020/12/14,05:00,0.676,0.963,0.614,1.209,0.853,0.387,0.677,0.636,��,8.4,��
2020/12/14,05:10,0.676,0.964,0.612,1.209,0.853,0.386,0.676,0.634,���쐼,9.9,��
2020/12/14,05:20,0.675,0.961,0.614,1.207,0.853,0.385,0.677,0.636,���쐼,10.5,��
2020/12/14,05:30,0.674,0.961,0.613,1.209,0.852,0.385,0.678,0.635,��,9.6,��
2020/12/14,05:40,0.673,0.963,0.612,1.208,0.851,0.384,0.679,0.635,��,8.0,��
2020/12/14,05:50,0.672,0.961,0.613,1.207,0.853,0.384,0.678,0.636,���k��,7.5,��
2020/12/14,06:00,0.674,0.958,0.612,1.207,0.850,0.384,0.676,0.636,���k��,7.5,��
2020/12/14,06:10,0.672,0.961,0.613,1.208,0.851,0.384,0.676,0.634,�k��,8.1,��
2020/12/14,06:20,0.672,0.960,0.611,1.208,0.851,0.385,0.677,0.636,���k��,8.6,��
2020/12/14,06:30,0.670,0.960,0.612,1.207,0.848,0.383,0.676,0.635,���k��,8.0,��
2020/12/14,06:40,0.671,0.960,0.611,1.207,0.848,0.384,0.676,0.636,���k��,5.8,��
2020/12/14,06:50,0.671,0.959,0.612,1.209,0.850,0.383,0.676,0.636,�k��,6.3,��
2020/12/14,07:00,0.671,0.959,0.611,1.208,0.848,0.383,0.675,0.635,�k�k��,6.1,��
2020/12/14,07:10,0.671,0.961,0.611,1.207,0.849,0.384,0.675,0.635,�k,5.7,��
2020/12/14,07:20,0.674,0.959,0.611,1.209,0.850,0.381,0.674,0.634,�k�k��,7.2,��
2020/12/14,07:30,0.670,0.959,0.610,1.211,0.850,0.383,0.675,0.635,�k�k��,7.6,��
2020/12/14,07:40,0.670,0.957,0.611,1.207,0.849,0.383,0.677,0.634,�k�k��,6.2,��
2020/12/14,07:50,0.670,0.955,0.609,1.208,0.850,0.383,0.676,0.635,�k,8.4,��
2020/12/14,08:00,0.671,0.957,0.609,1.208,0.847,0.382,0.675,0.635,�k,6.3,��
2020/12/14,08:10,0.671,0.960,0.609,1.209,0.849,0.382,0.677,0.633,�k,6.9,��
2020/12/14,08:20,0.672,0.958,0.610,1.209,0.850,0.381,0.675,0.635,�k,9.0,��
2020/12/14,08:30,0.669,0.959,0.609,1.209,0.849,0.382,0.676,0.634,�k�k��,10.0,��
2020/12/14,08:40,0.671,0.957,0.610,1.208,0.849,0.383,0.675,0.635,�k�k��,10.5,��
2020/12/14,08:50,0.671,0.956,0.610,1.209,0.850,0.383,0.676,0.635,�k�k��,9.6,��
2020/12/14,09:00,0.671,0.958,0.611,1.208,0.850,0.382,0.675,0.635,�k�k��,7.4,��
2020/12/14,09:10,0.671,0.958,0.610,1.207,0.850,0.383,0.675,0.633,�k,4.9,��
2020/12/14,09:20,0.670,0.956,0.610,1.207,0.849,0.382,0.674,0.635,�k,3.4,��
2020/12/14,09:30,0.673,0.956,0.610,1.206,0.849,0.383,0.676,0.635,�k,5.0,��
2020/12/14,09:40,0.672,0.957,0.610,1.207,0.851,0.383,0.677,0.635,�k,5.6,��
2020/12/14,09:50,0.671,0.957,0.612,1.209,0.852,0.382,0.678,0.637,�k�k��,6.1,��
2020/12/14,10:00,0.673,0.955,0.610,1.207,0.849,0.383,0.676,0.635,�k,5.9,��
2020/12/14,10:10,0.672,0.957,0.610,1.208,0.848,0.382,0.677,0.636,�k,6.8,��
2020/12/14,10:20,0.671,0.959,0.612,1.207,0.851,0.383,0.675,0.635,�k�k��,8.1,��
2020/12/14,10:30,0.674,0.956,0.609,1.212,0.852,0.383,0.676,0.635,�k,8.4,��
2020/12/14,10:40,0.674,0.958,0.611,1.209,0.849,0.383,0.676,0.634,�k�k��,8.1,��
2020/12/14,10:50,0.673,0.956,0.612,1.209,0.850,0.382,0.675,0.635,�k�k��,8.0,��
2020/12/14,11:00,0.672,0.959,0.612,1.211,0.850,0.382,0.676,0.635,�k�k��,8.0,��
2020/12/14,11:10,0.672,0.959,0.611,1.210,0.850,0.383,0.673,0.635,�k,7.0,��
2020/12/14,11:20,0.672,0.960,0.611,1.209,0.851,0.383,0.674,0.635,�k�k��,7.3,��
2020/12/14,11:30,0.673,0.964,0.612,1.209,0.848,0.384,0.676,0.636,�k�k��,7.6,��
2020/12/14,11:40,0.672,0.961,0.612,1.209,0.851,0.383,0.675,0.636,�k�k��,7.1,��
2020/12/14,11:50,0.672,0.961,0.612,1.207,0.852,0.382,0.676,0.636,�k,6.6,��
2020/12/14,12:00,0.670,0.960,0.610,1.208,0.850,0.382,0.674,0.637,�k,5.4,��
2020/12/14,12:10,0.673,0.962,0.612,1.209,0.848,0.383,0.675,0.636,�k�k��,5.5,��
2020/12/14,12:20,0.673,0.964,0.613,1.209,0.853,0.382,0.676,0.635,�k�k��,6.0,��
2020/12/14,12:30,0.673,0.963,0.611,1.209,0.852,0.383,0.675,0.635,�k�k��,5.6,��
2020/12/14,12:40,0.673,0.964,0.612,1.210,0.853,0.383,0.675,0.637,�k��,5.5,��
2020/12/14,12:50,0.674,0.964,0.613,1.209,0.852,0.384,0.676,0.637,�k��,7.3,��
2020/12/14,13:00,0.673,0.959,0.612,1.212,0.853,0.384,0.675,0.633,�k��,8.8,��
2020/12/14,13:10,0.672,0.961,0.611,1.213,0.854,0.384,0.677,0.638,�k��,8.5,��
2020/12/14,13:20,0.672,0.962,0.610,1.211,0.853,0.383,0.674,0.636,�k��,9.2,��
2020/12/14,13:30,0.673,0.961,0.611,1.211,0.855,0.382,0.676,0.637,�k��,9.9,��
2020/12/14,13:40,0.674,0.963,0.613,1.213,0.852,0.382,0.674,0.634,�k��,9.0,��
2020/12/14,13:50,0.674,0.961,0.612,1.211,0.852,0.383,0.674,0.635,�k��,7.4,��
2020/12/14,14:00,0.674,0.963,0.614,1.210,0.854,0.383,0.675,0.637,�k��,11.1,��
2020/12/14,14:10,0.674,0.959,0.613,1.211,0.854,0.382,0.675,0.636,�k��,9.3,��
2020/12/14,14:20,0.675,0.958,0.610,1.214,0.855,0.383,0.676,0.636,���k��,8.0,��
2020/12/14,14:30,0.674,0.962,0.612,1.210,0.853,0.383,0.677,0.636,�k��,9.9,��
2020/12/14,14:40,0.674,0.963,0.613,1.211,0.855,0.384,0.677,0.637,�k��,7.9,��
2020/12/14,14:50,0.673,0.962,0.613,1.211,0.853,0.382,0.676,0.638,�k��,7.9,��
2020/12/14,15:00,0.674,0.963,0.615,1.212,0.849,0.382,0.676,0.636,�k��,7.7,��
2020/12/14,15:10,0.672,0.965,0.612,1.210,0.852,0.384,0.678,0.636,�k��,8.1,��
2020/12/14,15:20,0.674,0.963,0.613,1.213,0.855,0.382,0.676,0.638,�k��,6.5,��
2020/12/14,15:30,0.671,0.967,0.612,1.212,0.855,0.384,0.675,0.636,�k��,6.4,��
2020/12/14,15:40,0.675,0.964,0.613,1.214,0.855,0.382,0.677,0.636,�k��,5.8,��
2020/12/14,15:50,0.672,0.963,0.613,1.214,0.853,0.383,0.678,0.636,�k�k��,7.0,��
2020/12/14,16:00,0.674,0.965,0.612,1.213,0.854,0.383,0.677,0.636,�k��,6.2,��
2020/12/14,16:10,0.673,0.964,0.611,1.211,0.854,0.383,0.675,0.636,�k��,6.3,��
2020/12/14,16:20,0.671,0.963,0.612,1.210,0.853,0.383,0.676,0.636,�k��,7.7,��
2020/12/14,16:30,0.672,0.964,0.612,1.213,0.854,0.382,0.676,0.635,�k��,7.1,��
2020/12/14,16:40,0.672,0.963,0.614,1.212,0.852,0.382,0.676,0.636,�k��,5.2,��
2020/12/14,16:50,0.671,0.964,0.611,1.211,0.854,0.382,0.676,0.635,�k��,5.4,��
2020/12/14,17:00,0.670,0.966,0.612,1.210,0.854,0.383,0.675,0.635,�k��,4.5,��
2020/12/14,17:10,0.671,0.966,0.611,1.210,0.854,0.382,0.677,0.636,�k�k��,5.2,��
2020/12/14,17:20,0.672,0.964,0.612,1.210,0.853,0.383,0.675,0.635,�k�k��,4.6,��
2020/12/14,17:30,0.669,0.965,0.614,1.210,0.853,0.382,0.676,0.636,�k�k��,4.6,��
2020/12/14,17:40,0.672,0.965,0.611,1.212,0.854,0.383,0.675,0.635,�k��,6.4,��
2020/12/14,17:50,0.671,0.964,0.612,1.214,0.854,0.381,0.674,0.638,�k��,5.6,��
2020/12/14,18:00,0.671,0.966,0.611,1.209,0.854,0.383,0.675,0.637,�k��,5.4,��
2020/12/14,18:10,0.670,0.965,0.611,1.213,0.853,0.381,0.675,0.635,�k��,4.1,��
2020/12/14,18:20,0.670,0.963,0.611,1.211,0.853,0.380,0.676,0.636,�k��,4.6,��
2020/12/14,18:30,0.670,0.963,0.611,1.213,0.853,0.382,0.675,0.634,�k��,5.8,��
2020/12/14,18:40,0.670,0.964,0.610,1.213,0.852,0.382,0.675,0.636,�k��,5.4,��
2020/12/14,18:50,0.670,0.963,0.612,1.211,0.854,0.382,0.675,0.635,���k��,5.1,��
2020/12/14,19:00,0.669,0.962,0.612,1.209,0.852,0.381,0.675,0.635,�k��,5.8,��
2020/12/14,19:10,0.670,0.963,0.611,1.211,0.855,0.384,0.676,0.636,���k��,5.9,��
2020/12/14,19:20,0.671,0.966,0.613,1.210,0.854,0.382,0.676,0.636,���k��,5.3,��
2020/12/14,19:30,0.671,0.964,0.612,1.213,0.853,0.382,0.674,0.635,���k��,4.4,��
2020/12/14,19:40,0.670,0.964,0.611,1.211,0.854,0.383,0.675,0.635,���k��,3.3,��
2020/12/14,19:50,0.669,0.966,0.611,1.211,0.853,0.382,0.675,0.636,���쐼,2.0,��
2020/12/14,20:00,0.672,0.963,0.612,1.212,0.854,0.383,0.674,0.636,��,2.2,��
2020/12/14,20:10,0.672,0.966,0.612,1.211,0.852,0.382,0.675,0.633,��,2.0,��
2020/12/14,20:20,0.670,0.966,0.612,1.211,0.854,0.383,0.676,0.634,���k��,4.4,��
2020/12/14,20:30,0.670,0.966,0.610,1.210,0.854,0.382,0.675,0.637,���k��,5.8,��
2020/12/14,20:40,0.670,0.964,0.611,1.211,0.852,0.383,0.675,0.634,�k��,5.1,��
2020/12/14,20:50,0.671,0.963,0.612,1.214,0.852,0.382,0.674,0.634,�k��,4.3,��
2020/12/14,21:00,0.670,0.965,0.613,1.210,0.852,0.382,0.673,0.634,�k��,5.8,��
2020/12/14,21:10,0.669,0.963,0.611,1.211,0.852,0.382,0.673,0.634,�k��,4.9,��
2020/12/14,21:20,0.668,0.967,0.612,1.213,0.851,0.382,0.676,0.633,�k��,6.3,��
2020/12/14,21:30,0.669,0.965,0.612,1.213,0.853,0.383,0.675,0.635,�k��,5.4,��
2020/12/14,21:40,0.669,0.964,0.611,1.213,0.854,0.382,0.673,0.634,�k��,5.1,��
2020/12/14,21:50,0.670,0.964,0.610,1.213,0.852,0.383,0.674,0.633,�k��,6.4,��
2020/12/14,22:00,0.669,0.963,0.611,1.211,0.853,0.382,0.675,0.635,�k��,5.5,��
2020/12/14,22:10,0.670,0.964,0.611,1.213,0.852,0.381,0.673,0.635,�k��,5.4,��
2020/12/14,22:20,0.671,0.968,0.612,1.212,0.853,0.381,0.675,0.634,���k��,6.4,��
2020/12/14,22:30,0.668,0.962,0.612,1.212,0.853,0.382,0.674,0.634,���k��,5.6,��
2020/12/14,22:40,0.670,0.965,0.611,1.214,0.854,0.383,0.675,0.634,�k��,6.4,��
2020/12/14,22:50,0.670,0.965,0.612,1.213,0.852,0.381,0.675,0.635,�k��,7.0,��
2020/12/14,23:00,0.669,0.966,0.612,1.211,0.852,0.381,0.676,0.634,�k��,6.4,��
2020/12/14,23:10,0.670,0.964,0.611,1.212,0.854,0.381,0.675,0.633,���k��,6.5,��
2020/12/14,23:20,0.670,0.964,0.610,1.212,0.854,0.381,0.674,0.634,���k��,5.9,��
2020/12/14,23:30,0.670,0.963,0.610,1.210,0.852,0.380,0.673,0.637,���k��,7.3,��
2020/12/14,23:40,0.670,0.964,0.612,1.213,0.853,0.383,0.674,0.634,���k��,6.7,��
2020/12/14,23:50,0.670,0.965,0.609,1.211,0.853,0.380,0.674,0.635,���k��,5.2,��
